CAPE
644 581 570 516 856 719 538 706 660 747 1114 965 1087 937 1106 1445 1014 1053 1455 1011 1054 826
719 595 480 414 671 693 563 530 568 844 1072 903 896 990 1114 1086 801 947 991 964 848 773
642 516 555 444 687 528 361 228 394 750 666 594 740 1032 1176 989 855 725 749 719 792 749
653 458 551 602 427 555 436 322 359 468 464 608 1005 1190 1173 1140 874 787 554 304 534 599
586 510 491 492 416 425 381 479 361 782 352 742 789 834 823 771 830 865 787 757 608 784
510 687 708 551 594 501 462 374 568 516 722 681 611 711 784 779 688 705 671 816 954 505
340 338 669 658 668 652 533 509 584 627 768 639 682 827 776 832 818 678 678 877 754 634
288 243 382 586 591 675 522 568 600 668 616 548 635 670 581 662 616 619 645 702 670 645
112 146 197 147 197 332 416 555 571 446 413 521 363 347 342 251 256 482 594 534 463 536
117 96 60 165 169 188 249 257 191 220 224 248 196 241 173 125 183 441 310 270 355 484
37 70 65 71 139 162 169 149 89 98 95 102 94 109 84 90 151 232 190 155 190 251
74 79 104 41 153 125 122 96 88 71 58 47 49 72 64 41 66 137 106 81 55 14
81 83 80 72 130 137 110 109 103 95 62 66 62 66 67 56 47 42 64 86 61 19
168 156 190 203 143 122 101 75 73 42 74 68 23 0 14 33 27 59 78 37 18 13
CIN
-30 -47 -23 -41 -55 -30 -17 -46 -38 -42 -39 -30 -31 -21 -16 -10 -31 -46 -21 -39 -29 -54
-43 -37 -40 -58 -36 -25 -34 -33 -32 -124 -64 -34 -27 -19 -24 -25 -24 -34 -19 -23 -43 -36
-20 -53 -61 -54 -36 -29 -24 -17 -83 -45 -34 -20 -29 -89 -38 -23 -6 -15 -9 -8 -15 -34
-35 -43 -53 -29 -40 -34 -35 -52 -67 -50 -31 -74 -39 -37 -31 -19 -19 -14 -4 -22 -13 -24
-49 -36 -36 -68 -62 -30 -35 -49 -18 -45 -20 -42 -33 -35 -21 -26 -31 -18 -19 -21 -35 -23
-45 -29 -18 -38 -44 -32 -26 -68 -40 -29 -38 -31 -53 -42 -29 -27 -19 -24 -29 -37 -28 -44
-57 -51 -19 -25 -32 -26 -33 -26 -34 -27 -34 -26 -28 -28 -26 -26 -26 -26 -39 -22 -34 -34
-57 -55 -24 -16 -31 -18 -26 -40 -30 -24 -30 -17 -35 -25 -30 -24 -18 -20 -22 -24 -28 -26
-66 -58 -33 -28 -42 -56 -43 -33 -16 -15 -38 -27 -28 -36 -31 -34 -46 -70 -36 -17 -14 -28
-40 -25 -39 -51 -61 -43 -43 -37 -58 -39 -40 -15 -27 -35 -34 -52 -46 -60 -49 -34 -66 -45
-42 -56 -44 -38 -19 -35 -42 -36 -29 -44 -32 -20 -30 -43 -61 -43 -56 -43 -35 -42 -46 -49
-12 -9 -14 -45 -0 -3 -16 -25 -25 -21 -18 -7 -5 -19 -27 -21 -54 -16 -18 -17 -23 -19
-7 -1 -5 -9 -0 -0 -0 -1 -2 -1 -3 -8 -6 -2 -2 -2 -0 -0 -6 -9 -3 -4
-40 -21 -4 -0 -0 -0 -0 -0 -1 -0 -0 -9 -6 -8 -26 -38 -37 -9 -0 -4 -17 -39
Wind_Speed
11 9 8 9 8 9 7 6 5 2 1 4 6 4 6 7 6 3 1 6 6 6
12 10 10 9 8 8 10 10 8 4 4 3 3 4 7 5 4 3 2 1 2 2
14 11 12 11 8 7 9 9 11 7 5 6 5 7 7 5 4 7 4 3 3 2
15 14 13 13 13 9 11 11 10 7 9 7 8 10 9 7 5 5 3 1 3 3
19 19 17 15 14 12 10 12 10 10 11 10 7 10 9 8 7 6 5 4 6 4
18 20 18 15 15 15 13 13 12 12 11 9 11 11 9 9 8 8 8 9 8 4
20 20 19 18 18 17 15 13 14 13 11 12 15 14 9 11 11 9 10 10 12 10
33 31 28 21 18 18 18 16 15 16 17 22 22 18 14 13 12 11 11 14 16 18
33 27 27 22 18 21 24 22 24 25 26 27 22 22 21 20 16 14 16 19 21 20
36 nan nan 30 26 28 28 29 30 32 32 28 24 24 27 25 22 25 26 27 26 24
nan nan nan nan 33 33 33 33 nan nan nan 28 nan 27 nan nan 23 27 26 26 24 25
nan nan 31 nan 34 35 34 nan nan nan nan nan nan nan nan nan nan 35 33 nan nan nan
nan nan nan nan 30 34 30 35 37 nan nan nan nan nan nan nan nan nan nan nan nan nan
26 25 27 29 27 29 31 nan nan nan nan nan nan nan nan nan nan nan nan nan nan nan
Wind_Direction
227 197 198 203 213 196 217 239 215 266 218 123 137 152 205 214 184 182 137 112 87 67
232 225 206 212 213 199 191 201 224 234 311 278 178 176 228 221 178 221 243 236 115 87
217 213 223 222 233 222 229 220 215 223 227 236 213 213 268 269 245 239 221 247 146 197
224 224 222 236 243 232 233 224 236 230 215 223 218 224 260 279 268 265 267 243 217 177
232 232 229 226 242 244 242 247 241 224 255 255 244 244 251 261 252 264 260 240 229 197
239 237 235 231 236 244 241 248 254 246 252 239 246 244 250 259 262 256 249 248 257 240
233 239 235 227 230 237 238 234 243 247 242 242 244 248 244 250 256 258 268 270 275 274
235 228 229 231 241 243 242 242 241 242 240 239 245 241 231 238 245 252 269 284 284 282
247 243 232 229 234 245 250 251 251 248 248 246 243 233 229 230 240 248 268 276 275 277
246 nan nan 228 231 245 248 252 255 255 252 240 240 236 236 234 251 262 266 266 274 278
nan nan nan nan 233 234 241 249 nan nan nan 252 nan 237 nan nan 258 268 273 269 277 287
nan nan 239 nan 233 233 246 nan nan nan nan nan nan nan nan nan nan 261 267 nan nan nan
nan nan nan nan 239 234 252 255 261 nan nan nan nan nan nan nan nan nan nan nan nan nan
224 227 233 233 239 245 250 nan nan nan nan nan nan nan nan nan nan nan nan nan nan nan